• In Belarus
  • List of Countries
  • For 7 days
  • Water Temperature
  • Satellite Maps
  • Weather Map
  • Weather Widgets
  • user-avatar
    Login

    Hourly Weather Benguela

    Today, 27 June, Tuesday

    Time Temperature Precipitation Wind Pressure Humidity
    00:00 +25°C° 0 mm 2 mps 760 mmHg 78%
    01:00 +25°C° 0 mm 2 mps 760 mmHg 76%
    02:00 +24°C° 0 mm 2 mps 760 mmHg 74%
    03:00 +24°C° 0 mm 3 mps 760 mmHg 72%
    04:00 +24°C° 0 mm 3 mps 760 mmHg 70%
    05:00 +25°C° 0 mm 3 mps 760 mmHg 66%
    06:00 +25°C° 0 mm 2 mps 760 mmHg 63%
    07:00 +25°C° 0 mm 2 mps 760 mmHg 59%
    08:00 +28°C° 0 mm 2 mps 760 mmHg 49%
    09:00 +31°C° 0 mm 2 mps 761 mmHg 40%
    10:00 +35°C° 0 mm 2 mps 761 mmHg 30%
    11:00 +36°C° 0 mm 3 mps 760 mmHg 30%
    12:00 +37°C° 0 mm 4 mps 760 mmHg 29%
    13:00 +36°C° 0 mm 4 mps 760 mmHg 34%
    14:00 +36°C° 0 mm 4 mps 759 mmHg 37%
    15:00 +35°C° 0 mm 5 mps 759 mmHg 39%
    16:00 +35°C° 0 mm 5 mps 758 mmHg 42%
    17:00 +32°C° 0 mm 5 mps 759 mmHg 51%
    18:00 +29°C° 0 mm 4 mps 759 mmHg 60%
    19:00 +27°C° 0 mm 4 mps 759 mmHg 69%
    20:00 +27°C° 0 mm 3 mps 760 mmHg 71%
    21:00 +26°C° 0 mm 3 mps 760 mmHg 72%
    22:00 +26°C° 0 mm 3 mps 760 mmHg 74%
    23:00 +25°C° 0 mm 2 mps 760 mmHg 75%

    Tomorrow, 28 June, Wednesday

    Time Temperature Precipitation Wind Pressure Humidity
    00:00 +25°C° 0 mm 2 mps 760 mmHg 76%
    01:00 +25°C° 0 mm 2 mps 760 mmHg 77%
    02:00 +25°C° 0 mm 2 mps 760 mmHg 75%
    03:00 +24°C° 0 mm 2 mps 760 mmHg 73%
    04:00 +24°C° 0 mm 2 mps 760 mmHg 71%
    05:00 +24°C° 0 mm 2 mps 760 mmHg 67%
    06:00 +25°C° 0 mm 2 mps 760 mmHg 63%
    07:00 +25°C° 0 mm 2 mps 760 mmHg 59%
    08:00 +28°C° 0 mm 2 mps 760 mmHg 48%
    09:00 +31°C° 0 mm 2 mps 760 mmHg 37%
    10:00 +35°C° 0 mm 2 mps 760 mmHg 26%
    11:00 +35°C° 0 mm 3 mps 760 mmHg 28%
    12:00 +36°C° 0 mm 3 mps 759 mmHg 29%
    13:00 +37°C° 0 mm 3 mps 759 mmHg 30%
    14:00 +36°C° 0 mm 3 mps 758 mmHg 33%
    15:00 +36°C° 0 mm 3 mps 758 mmHg 37%
    16:00 +35°C° 0 mm 3 mps 757 mmHg 41%
    17:00 +33°C° 0 mm 3 mps 758 mmHg 50%
    18:00 +29°C° 0 mm 3 mps 758 mmHg 59%
    19:00 +27°C° 0 mm 2 mps 758 mmHg 67%
    20:00 +27°C° 0 mm 2 mps 759 mmHg 70%
    21:00 +26°C° 0 mm 2 mps 759 mmHg 73%
    22:00 +25°C° 0 mm 1 mps 760 mmHg 76%
    23:00 +25°C° 0 mm 1 mps 760 mmHg 79%

    Day after tomorrow, 29 June, Thursday

    Time Temperature Precipitation Wind Pressure Humidity
    00:00 +25°C° 0 mm 1 mps 760 mmHg 81%
    01:00 +24°C° 0 mm 1 mps 760 mmHg 84%
    02:00 +24°C° 0 mm 1 mps 760 mmHg 84%
    03:00 +23°C° 0 mm 1 mps 759 mmHg 85%
    04:00 +23°C° 0 mm 1 mps 759 mmHg 85%
    05:00 +23°C° 0 mm 1 mps 759 mmHg 84%
    06:00 +24°C° 0 mm 2 mps 760 mmHg 83%
    07:00 +24°C° 0 mm 2 mps 760 mmHg 81%
    08:00 +27°C° 0 mm 2 mps 760 mmHg 68%
    09:00 +29°C° 0 mm 3 mps 761 mmHg 56%
    10:00 +33°C° 0 mm 3 mps 761 mmHg 43%
    11:00 +34°C° 0 mm 3 mps 760 mmHg 41%
    12:00 +35°C° 0 mm 4 mps 760 mmHg 38%
    13:00 +36°C° 0 mm 4 mps 759 mmHg 36%
    14:00 +36°C° 0 mm 4 mps 759 mmHg 41%
    15:00 +35°C° 0 mm 3 mps 758 mmHg 45%
    16:00 +34°C° 0 mm 3 mps 758 mmHg 49%
    17:00 +31°C° 0 mm 3 mps 758 mmHg 59%
    18:00 +29°C° 0 mm 3 mps 759 mmHg 69%
    19:00 +27°C° 0 mm 2 mps 759 mmHg 79%
    20:00 +26°C° 0 mm 2 mps 760 mmHg 81%
    21:00 +26°C° 0 mm 2 mps 760 mmHg 83%
    22:00 +25°C° 0 mm 1 mps 761 mmHg 84%
    23:00 +25°C° 0 mm 1 mps 761 mmHg 83%

    30 June, Friday

    Time Temperature Precipitation Wind Pressure Humidity
    00:00 +25°C° 0 mm 2 mps 760 mmHg 82%
    01:00 +25°C° 0 mm 2 mps 760 mmHg 81%
    02:00 +25°C° 0 mm 2 mps 760 mmHg 79%
    03:00 +25°C° 0 mm 2 mps 760 mmHg 77%
    04:00 +24°C° 0 mm 2 mps 759 mmHg 76%
    05:00 +25°C° 0 mm 2 mps 760 mmHg 72%
    06:00 +25°C° 0 mm 2 mps 760 mmHg 69%
    07:00 +25°C° 0 mm 2 mps 761 mmHg 65%
    08:00 +28°C° 0 mm 2 mps 761 mmHg 55%
    09:00 +30°C° 0 mm 2 mps 761 mmHg 46%
    10:00 +34°C° 0 mm 2 mps 762 mmHg 36%
    11:00 +35°C° 0 mm 2 mps 761 mmHg 35%
    12:00 +36°C° 0 mm 3 mps 760 mmHg 35%
    13:00 +37°C° 0 mm 4 mps 759 mmHg 34%
    14:00 +36°C° 0 mm 4 mps 759 mmHg 38%
    15:00 +35°C° 0 mm 4 mps 759 mmHg 41%
    16:00 +34°C° 0 mm 4 mps 758 mmHg 45%
    17:00 +31°C° 0 mm 3 mps 759 mmHg 53%
    18:00 +29°C° 0 mm 3 mps 759 mmHg 61%
    19:00 +27°C° 0 mm 3 mps 760 mmHg 70%
    20:00 +27°C° 0 mm 3 mps 760 mmHg 71%
    21:00 +26°C° 0 mm 2 mps 760 mmHg 72%
    22:00 +26°C° 0 mm 2 mps 761 mmHg 73%
    23:00 +25°C° 0 mm 2 mps 760 mmHg 73%

    1 July, Saturday

    Time Temperature Precipitation Wind Pressure Humidity
    00:00 +25°C° 0 mm 2 mps 760 mmHg 74%
    01:00 +25°C° 0 mm 2 mps 760 mmHg 74%
    02:00 +25°C° 0 mm 2 mps 760 mmHg 72%
    03:00 +25°C° 0 mm 2 mps 759 mmHg 70%
    04:00 +25°C° 0 mm 2 mps 759 mmHg 67%
    05:00 +25°C° 0 mm 2 mps 760 mmHg 65%
    06:00 +25°C° 0 mm 1 mps 760 mmHg 62%
    07:00 +25°C° 0 mm 1 mps 760 mmHg 59%
    08:00 +28°C° 0 mm 1 mps 760 mmHg 49%
    09:00 +31°C° 0 mm 2 mps 761 mmHg 38%
    10:00 +35°C° 0 mm 2 mps 761 mmHg 28%
    11:00 +36°C° 0 mm 3 mps 760 mmHg 27%
    12:00 +37°C° 0 mm 3 mps 759 mmHg 27%
    13:00 +38°C° 0 mm 4 mps 759 mmHg 27%
    14:00 +37°C° 0 mm 4 mps 758 mmHg 31%
    15:00 +36°C° 0 mm 3 mps 758 mmHg 35%
    16:00 +35°C° 0 mm 3 mps 758 mmHg 40%
    17:00 +33°C° 0 mm 3 mps 758 mmHg 50%
    18:00 +29°C° 0 mm 2 mps 759 mmHg 60%
    19:00 +27°C° 0 mm 2 mps 759 mmHg 69%
    20:00 +26°C° 0 mm 2 mps 759 mmHg 72%
    21:00 +26°C° 0 mm 1 mps 760 mmHg 74%
    22:00 +25°C° 0 mm 1 mps 760 mmHg 76%
    23:00 +25°C° 0 mm 1 mps 760 mmHg 75%

    2 July, Sunday

    Time Temperature Precipitation Wind Pressure Humidity
    00:00 +25°C° 0 mm 1 mps 760 mmHg 75%
    01:00 +25°C° 0 mm 1 mps 759 mmHg 75%
    02:00 +25°C° 0 mm 1 mps 759 mmHg 72%
    03:00 +25°C° 0 mm 2 mps 759 mmHg 70%
    04:00 +24°C° 0 mm 2 mps 759 mmHg 67%
    05:00 +24°C° 0 mm 2 mps 759 mmHg 64%
    06:00 +25°C° 0 mm 2 mps 760 mmHg 60%
    07:00 +25°C° 0 mm 2 mps 760 mmHg 57%
    08:00 +27°C° 0 mm 2 mps 760 mmHg 48%
    09:00 +30°C° 0 mm 2 mps 760 mmHg 39%
    10:00 +34°C° 0 mm 3 mps 761 mmHg 29%
    11:00 +35°C° 0 mm 3 mps 760 mmHg 30%
    12:00 +36°C° 0 mm 4 mps 759 mmHg 31%
    13:00 +37°C° 0 mm 4 mps 758 mmHg 32%
    14:00 +36°C° 0 mm 4 mps 758 mmHg 37%
    15:00 +35°C° 0 mm 4 mps 758 mmHg 43%
    16:00 +34°C° 0 mm 3 mps 757 mmHg 48%
    17:00 +31°C° 0 mm 3 mps 758 mmHg 58%
    18:00 +29°C° 0 mm 2 mps 758 mmHg 69%
    19:00 +26°C° 0 mm 1 mps 759 mmHg 79%
    20:00 +26°C° 0 mm 1 mps 759 mmHg 81%
    21:00 +25°C° 0 mm 1 mps 759 mmHg 83%
    22:00 +25°C° 0 mm 1 mps 760 mmHg 85%
    23:00 +25°C° 0 mm 1 mps 759 mmHg 84%
    Show more